TimeEST,TemperatureF,Dew PointF,Humidity,Sea Level PressureIn,VisibilityMPH,Wind Direction,Wind SpeedMPH,Gust SpeedMPH,PrecipitationIn,Events,Conditions,WindDirDegrees,DateUTC
12:52 AM,55.9,44.1,64,30.14,10.0,South,10.4,-,N/A,,Overcast,190,2012-12-02 05:52:00
1:52 AM,55.9,44.1,64,30.14,10.0,SSW,12.7,20.7,N/A,,Overcast,200,2012-12-02 06:52:00
2:52 AM,55.9,44.1,64,30.12,10.0,South,12.7,-,N/A,,Mostly Cloudy,190,2012-12-02 07:52:00
3:52 AM,57.0,45.0,64,30.11,10.0,SSW,13.8,23.0,N/A,,Overcast,200,2012-12-02 08:52:00
4:52 AM,57.0,45.0,64,30.09,10.0,SSW,12.7,21.9,N/A,,Overcast,200,2012-12-02 09:52:00
5:52 AM,57.0,45.0,64,30.08,10.0,South,11.5,20.7,N/A,,Overcast,190,2012-12-02 10:52:00
6:52 AM,59.0,45.0,60,30.07,10.0,SSW,15.0,25.3,N/A,,Overcast,200,2012-12-02 11:52:00
7:52 AM,57.9,46.9,67,30.08,10.0,SSW,13.8,27.6,0.00,Rain,Light Rain,200,2012-12-02 12:52:00
8:40 AM,55.4,48.2,77,30.10,1.8,West,10.4,20.7,0.08,Rain,Rain,260,2012-12-02 13:40:00
8:52 AM,54.0,50.0,86,30.09,0.8,SW,10.4,-,0.28,Rain,Heavy Rain,220,2012-12-02 13:52:00
9:05 AM,53.6,51.8,94,30.11,2.0,WSW,5.8,-,0.18,Rain,Heavy Rain,250,2012-12-02 14:05:00
9:52 AM,53.1,51.1,93,30.10,5.0,SSW,8.1,-,0.29,Rain,Light Rain,200,2012-12-02 14:52:00
10:52 AM,54.0,52.0,93,30.11,7.0,SSW,9.2,-,0.01,,Overcast,200,2012-12-02 15:52:00
11:52 AM,55.0,52.0,89,30.09,6.0,SSW,6.9,-,0.01,,Overcast,200,2012-12-02 16:52:00
12:41 PM,55.4,53.6,94,30.09,7.0,SSW,10.4,-,0.00,,Overcast,200,2012-12-02 17:41:00
12:52 PM,55.9,53.1,90,30.08,7.0,SSW,8.1,-,0.00,,Overcast,200,2012-12-02 17:52:00
1:09 PM,55.4,53.6,94,30.08,6.0,SSW,8.1,-,N/A,,Overcast,210,2012-12-02 18:09:00
1:52 PM,57.0,54.0,89,30.07,6.0,SSW,8.1,-,N/A,,Overcast,210,2012-12-02 18:52:00
2:14 PM,57.2,53.6,88,30.07,2.5,SSW,9.2,-,N/A,,Overcast,210,2012-12-02 19:14:00
2:28 PM,57.2,55.4,94,30.08,1.8,SW,9.2,-,N/A,,Overcast,220,2012-12-02 19:28:00
2:52 PM,57.0,55.0,93,30.07,1.8,SSW,12.7,17.3,0.00,Rain,Light Rain,210,2012-12-02 19:52:00
2:59 PM,57.2,55.4,94,30.08,2.0,SW,10.4,-,0.00,Rain,Light Rain,220,2012-12-02 19:59:00
3:52 PM,57.9,55.9,93,30.07,2.0,SW,9.2,-,0.01,,Light Drizzle,220,2012-12-02 20:52:00
4:52 PM,57.9,55.9,93,30.09,2.0,SW,9.2,17.3,0.00,,Overcast,230,2012-12-02 21:52:00
5:27 PM,57.2,55.4,94,30.11,1.5,SW,9.2,-,N/A,,Overcast,230,2012-12-02 22:27:00
6:02 PM,57.2,55.4,94,30.11,1.5,SW,6.9,-,N/A,,Overcast,220,2012-12-02 23:02:00
6:49 PM,57.2,55.4,94,30.11,0.8,SSW,5.8,-,N/A,,Overcast,210,2012-12-02 23:49:00
6:52 PM,57.9,55.9,93,30.10,0.8,SSW,5.8,-,N/A,,Overcast,210,2012-12-02 23:52:00
7:52 PM,57.9,55.9,93,30.11,1.8,South,4.6,-,N/A,,Overcast,190,2012-12-03 00:52:00
8:25 PM,57.2,55.4,94,30.12,2.0,SSW,5.8,-,N/A,,Overcast,200,2012-12-03 01:25:00
8:52 PM,57.9,57.0,97,30.12,2.5,SSW,4.6,-,N/A,,Overcast,200,2012-12-03 01:52:00
9:52 PM,59.0,57.0,93,30.13,3.0,SSW,4.6,-,0.02,,Overcast,210,2012-12-03 02:52:00
10:32 PM,59.0,57.2,94,30.14,4.0,Calm,Calm,-,0.03,,Overcast,0,2012-12-03 03:32:00
10:52 PM,59.0,57.0,93,30.13,3.0,Calm,Calm,-,0.03,Rain,Light Rain,0,2012-12-03 03:52:00
11:52 PM,57.9,57.0,97,30.14,3.0,Calm,Calm,-,0.00,,Overcast,0,2012-12-03 04:52:00